�������l�o���
Date,Time,MP-1(��Sv/h),MP-2(��Sv/h),MP-3(��Sv/h),MP-4(��Sv/h),MP-5(��Sv/h),MP-6(��Sv/h),MP-7(��Sv/h),MP-8(��Sv/h),����,����(m/s),���J
2022/06/07,00:00,0.543,0.779,0.516,0.949,0.646,0.336,0.568,0.542,�k��,10.3,�L
2022/06/07,00:10,0.544,0.779,0.515,0.950,0.649,0.337,0.565,0.542,���k��,13.0,�L
2022/06/07,00:20,0.539,0.778,0.516,0.943,0.644,0.335,0.566,0.540,���k��,13.1,�L
2022/06/07,00:30,0.537,0.776,0.515,0.941,0.645,0.337,0.565,0.541,���k��,12.7,�L
2022/06/07,00:40,0.540,0.776,0.515,0.945,0.647,0.337,0.565,0.542,���k��,11.6,�L
2022/06/07,00:50,0.543,0.779,0.515,0.945,0.646,0.336,0.566,0.541,�k��,12.2,�L
2022/06/07,01:00,0.543,0.782,0.516,0.949,0.648,0.338,0.566,0.542,�k��,13.5,�L
2022/06/07,01:10,0.542,0.778,0.514,0.941,0.641,0.336,0.564,0.537,�k��,11.9,�L
2022/06/07,01:20,0.539,0.773,0.511,0.933,0.637,0.336,0.562,0.539,-,CALM,�L
2022/06/07,01:30,0.533,0.766,0.512,0.928,0.633,0.335,0.560,0.538,�k��,13.1,�L
2022/06/07,01:40,0.533,0.768,0.513,0.930,0.633,0.337,0.561,0.537,�k��,13.6,�L
2022/06/07,01:50,0.538,0.775,0.514,0.933,0.637,0.337,0.562,0.539,�k��,13.2,�L
2022/06/07,02:00,0.542,0.776,0.514,0.938,0.639,0.339,0.564,0.539,�k��,13.5,�L
2022/06/07,02:10,0.534,0.769,0.511,0.933,0.631,0.337,0.561,0.538,�k��,12.2,�L
2022/06/07,02:20,0.531,0.762,0.508,0.922,0.626,0.336,0.557,0.536,�k��,11.0,�L
2022/06/07,02:30,0.530,0.764,0.506,0.919,0.621,0.335,0.557,0.534,�k�k��,11.6,�L
2022/06/07,02:40,0.531,0.761,0.506,0.918,0.620,0.335,0.557,0.535,�k�k��,10.5,�L
2022/06/07,02:50,0.532,0.763,0.505,0.919,0.617,0.335,0.556,0.534,�k�k��,9.6,�L
2022/06/07,03:00,0.533,0.766,0.506,0.919,0.615,0.337,0.558,0.535,�k�k��,9.6,�L
2022/06/07,03:10,0.531,0.762,0.503,0.917,0.613,0.335,0.556,0.536,�k�k��,10.0,�L
2022/06/07,03:20,0.531,0.761,0.503,0.916,0.611,0.335,0.554,0.534,�k�k��,8.8,�L
2022/06/07,03:30,0.533,0.762,0.506,0.917,0.608,0.338,0.556,0.535,�k�k��,9.4,�L
2022/06/07,03:40,0.533,0.765,0.503,0.919,0.608,0.337,0.556,0.536,�k,9.0,�L
2022/06/07,03:50,0.533,0.763,0.504,0.914,0.606,0.336,0.555,0.535,-,CALM,�L
2022/06/07,04:00,0.530,0.761,0.501,0.912,0.601,0.333,0.554,0.534,�k�k��,8.9,�L
2022/06/07,04:10,0.529,0.755,0.497,0.903,0.596,0.333,0.552,0.533,���k��,6.1,�L
2022/06/07,04:20,0.528,0.754,0.495,0.900,0.591,0.331,0.550,0.534,�k�k��,2.3,�L
2022/06/07,04:30,0.525,0.751,0.493,0.893,0.585,0.330,0.549,0.529,��,1.2,�L
2022/06/07,04:40,0.522,0.748,0.491,0.887,0.578,0.324,0.547,0.527,�k�k��,7.2,�L
2022/06/07,04:50,0.523,0.745,0.488,0.884,0.576,0.321,0.546,0.528,-,CALM,�L
2022/06/07,05:00,0.523,0.744,0.488,0.882,0.571,0.321,0.545,0.528,�k��,7.0,�L
2022/06/07,05:10,0.528,0.745,0.489,0.883,0.570,0.323,0.546,0.530,-,CALM,�L
2022/06/07,05:20,0.527,0.748,0.493,0.887,0.573,0.328,0.547,0.532,-,CALM,�L
2022/06/07,05:30,0.524,0.740,0.490,0.882,0.570,0.328,0.545,0.529,�k�k��,12.4,�L
2022/06/07,05:40,0.521,0.737,0.488,0.878,0.570,0.327,0.544,0.527,�k��,11.9,�L
2022/06/07,05:50,0.522,0.737,0.487,0.877,0.572,0.328,0.545,0.526,�k�k��,9.5,�L
2022/06/07,06:00,0.521,0.734,0.488,0.876,0.570,0.327,0.544,0.527,�k�k��,4.7,�L
2022/06/07,06:10,0.527,0.739,0.489,0.879,0.570,0.324,0.543,0.527,�k�k��,9.1,�L
2022/06/07,06:20,0.530,0.745,0.493,0.888,0.576,0.328,0.545,0.528,�k��,10.2,�L
2022/06/07,06:30,0.531,0.744,0.495,0.896,0.581,0.330,0.546,0.531,�k�k��,10.2,�L
2022/06/07,06:40,0.533,0.749,0.495,0.901,0.585,0.332,0.549,0.535,�k�k��,9.2,�L
2022/06/07,06:50,0.531,0.748,0.498,0.906,0.590,0.331,0.550,0.535,�k�k��,10.2,�L
2022/06/07,07:00,0.530,0.748,0.496,0.906,0.592,0.331,0.551,0.535,�k�k��,10.2,�L
2022/06/07,07:10,0.531,0.748,0.498,0.911,0.593,0.330,0.551,0.535,�k�k��,9.9,�L
2022/06/07,07:20,0.532,0.749,0.499,0.910,0.597,0.332,0.551,0.536,�k,10.2,�L
2022/06/07,07:30,0.530,0.749,0.498,0.911,0.597,0.330,0.551,0.536,�k,11.3,�L
2022/06/07,07:40,0.532,0.750,0.499,0.913,0.600,0.331,0.550,0.536,�k,11.1,�L
2022/06/07,07:50,0.534,0.753,0.499,0.916,0.604,0.331,0.551,0.537,�k,11.3,�L
2022/06/07,08:00,0.534,0.753,0.501,0.918,0.606,0.331,0.552,0.538,�k,10.4,�L
2022/06/07,08:10,0.535,0.754,0.500,0.922,0.609,0.332,0.552,0.537,�k,10.2,�L
2022/06/07,08:20,0.537,0.757,0.503,0.923,0.609,0.332,0.553,0.537,�k,9.9,�L
2022/06/07,08:30,0.536,0.756,0.503,0.926,0.614,0.331,0.553,0.539,�k,9.8,�L
2022/06/07,08:40,0.537,0.759,0.502,0.927,0.613,0.332,0.555,0.538,�k,10.3,�L
2022/06/07,08:50,0.537,0.758,0.503,0.930,0.614,0.330,0.555,0.538,�k,10.2,�L
2022/06/07,09:00,0.537,0.761,0.502,0.932,0.618,0.332,0.555,0.540,�k�k��,12.4,�L
2022/06/07,09:10,0.538,0.762,0.502,0.933,0.619,0.333,0.556,0.540,�k,9.2,�L
2022/06/07,09:20,0.538,0.760,0.503,0.934,0.619,0.331,0.556,0.540,�k,11.0,�L
2022/06/07,09:30,0.538,0.760,0.503,0.935,0.620,0.330,0.558,0.540,�k�k��,10.5,�L
2022/06/07,09:40,0.537,0.763,0.503,0.936,0.622,0.331,0.556,0.541,�k,7.8,�L
2022/06/07,09:50,0.539,0.761,0.503,0.937,0.622,0.332,0.557,0.539,�k,11.3,�L
2022/06/07,10:00,0.538,0.762,0.502,0.938,0.623,0.331,0.559,0.540,�k,11.4,�L
2022/06/07,10:10,0.540,0.763,0.503,0.939,0.623,0.332,0.558,0.540,�k,10.4,�L
2022/06/07,10:20,0.539,0.762,0.503,0.940,0.626,0.333,0.558,0.539,�k,11.6,�L
2022/06/07,10:30,0.540,0.763,0.504,0.943,0.628,0.331,0.560,0.540,�k,12.1,�L
2022/06/07,10:40,0.539,0.764,0.503,0.942,0.628,0.333,0.559,0.539,�k,10.8,�L
2022/06/07,10:50,0.541,0.763,0.503,0.943,0.629,0.331,0.560,0.540,�k,9.3,�L
2022/06/07,11:00,0.540,0.764,0.502,0.946,0.631,0.332,0.558,0.542,�k,10.4,�L
2022/06/07,11:10,0.538,0.763,0.503,0.947,0.630,0.332,0.561,0.541,�k,10.2,�L
2022/06/07,11:20,0.543,0.764,0.504,0.945,0.631,0.332,0.561,0.541,�k,9.7,�L
2022/06/07,11:30,0.540,0.765,0.504,0.947,0.632,0.333,0.560,0.540,�k,8.9,�L
2022/06/07,11:40,0.542,0.765,0.503,0.949,0.632,0.332,0.561,0.539,�k�k��,8.4,�L
2022/06/07,11:50,0.542,0.766,0.505,0.950,0.632,0.332,0.561,0.542,�k,7.2,�L
2022/06/07,12:00,0.542,0.764,0.505,0.948,0.633,0.333,0.560,0.542,�k,7.7,�L
2022/06/07,12:10,0.541,0.768,0.504,0.951,0.635,0.333,0.561,0.541,�k,8.4,�L
2022/06/07,12:20,0.543,0.768,0.504,0.951,0.633,0.334,0.561,0.542,�k�k��,8.1,�L
2022/06/07,12:30,0.539,0.765,0.504,0.949,0.635,0.333,0.560,0.542,�k,7.7,�L
2022/06/07,12:40,0.540,0.764,0.502,0.951,0.634,0.332,0.561,0.543,�k,8.7,�L
2022/06/07,12:50,0.539,0.765,0.505,0.951,0.634,0.333,0.561,0.540,�k,7.1,�L
2022/06/07,13:00,0.539,0.763,0.503,0.948,0.631,0.333,0.561,0.540,�k,9.9,�L
2022/06/07,13:10,0.538,0.764,0.504,0.950,0.633,0.332,0.561,0.541,�k,7.1,�L
2022/06/07,13:20,0.541,0.762,0.505,0.952,0.635,0.332,0.562,0.541,�k,7.9,�L
2022/06/07,13:30,0.539,0.764,0.501,0.950,0.636,0.333,0.562,0.540,�k,8.7,�L
2022/06/07,13:40,0.540,0.765,0.502,0.951,0.635,0.333,0.562,0.541,�k,9.6,�L
2022/06/07,13:50,0.538,0.764,0.502,0.951,0.638,0.332,0.562,0.539,�k,7.8,�L
2022/06/07,14:00,0.539,0.765,0.505,0.951,0.637,0.332,0.562,0.542,�k,9.1,�L
2022/06/07,14:10,0.539,0.764,0.504,0.952,0.637,0.333,0.561,0.542,�k,8.6,�L
2022/06/07,14:20,0.539,0.765,0.505,0.953,0.637,0.333,0.562,0.541,�k,8.0,�L
2022/06/07,14:30,0.541,0.765,0.506,0.953,0.639,0.333,0.563,0.540,�k,9.1,�L
2022/06/07,14:40,0.541,0.763,0.503,0.954,0.637,0.333,0.563,0.541,�k,7.5,�L
2022/06/07,14:50,0.541,0.765,0.503,0.953,0.636,0.334,0.562,0.541,�k,8.4,�L
2022/06/07,15:00,0.538,0.766,0.504,0.953,0.637,0.332,0.563,0.540,�k,9.7,�L
2022/06/07,15:10,0.537,0.763,0.505,0.953,0.638,0.332,0.562,0.539,�k,7.5,�L
2022/06/07,15:20,0.536,0.765,0.504,0.953,0.639,0.334,0.562,0.541,�k,7.9,�L
2022/06/07,15:30,0.537,0.765,0.502,0.952,0.639,0.333,0.562,0.540,�k,7.9,�L
2022/06/07,15:40,0.535,0.768,0.502,0.953,0.638,0.333,0.562,0.541,�k,5.6,�L
2022/06/07,15:50,0.536,0.765,0.502,0.951,0.637,0.333,0.561,0.540,�k,7.3,�L
2022/06/07,16:00,0.536,0.763,0.503,0.952,0.637,0.333,0.560,0.539,�k,7.8,�L
2022/06/07,16:10,0.534,0.765,0.501,0.951,0.639,0.333,0.560,0.540,�k,8.5,�L
2022/06/07,16:20,0.533,0.764,0.501,0.952,0.637,0.332,0.561,0.540,�k,7.1,�L
2022/06/07,16:30,0.533,0.763,0.501,0.950,0.637,0.334,0.561,0.540,�k,7.8,�L
2022/06/07,16:40,0.536,0.762,0.502,0.951,0.637,0.333,0.562,0.540,�k,7.3,�L
2022/06/07,16:50,0.537,0.763,0.502,0.950,0.638,0.332,0.560,0.539,�k,10.2,�L
2022/06/07,17:00,0.536,0.765,0.501,0.951,0.638,0.333,0.560,0.539,�k,8.0,�L
2022/06/07,17:10,0.536,0.766,0.502,0.952,0.639,0.333,0.560,0.539,�k,7.8,�L
2022/06/07,17:20,0.536,0.765,0.502,0.950,0.640,0.333,0.560,0.539,�k,8.0,�L
2022/06/07,17:30,0.537,0.763,0.502,0.951,0.639,0.332,0.560,0.541,�k,8.3,�L
2022/06/07,17:40,0.536,0.764,0.502,0.950,0.640,0.331,0.561,0.538,�k,8.4,�L
2022/06/07,17:50,0.538,0.764,0.502,0.950,0.640,0.332,0.561,0.541,�k,6.6,�L
2022/06/07,18:00,0.538,0.766,0.502,0.952,0.642,0.332,0.561,0.540,�k,7.2,�L
2022/06/07,18:10,0.538,0.764,0.501,0.953,0.641,0.332,0.562,0.539,�k,7.6,�L
2022/06/07,18:20,0.537,0.767,0.504,0.951,0.640,0.332,0.562,0.541,�k,6.7,�L
2022/06/07,18:30,0.538,0.766,0.501,0.951,0.643,0.332,0.561,0.540,�k,7.0,�L
2022/06/07,18:40,0.539,0.768,0.502,0.954,0.643,0.332,0.562,0.540,�k,5.0,�L
2022/06/07,18:50,0.537,0.768,0.503,0.952,0.642,0.333,0.563,0.540,�k,6.1,�L
2022/06/07,19:00,0.538,0.766,0.502,0.952,0.641,0.334,0.561,0.542,�k,5.8,�L
2022/06/07,19:10,0.538,0.770,0.502,0.954,0.643,0.332,0.563,0.541,�k,7.3,�L
2022/06/07,19:20,0.538,0.771,0.502,0.954,0.643,0.334,0.562,0.541,�k,5.9,�L
2022/06/07,19:30,0.538,0.771,0.502,0.954,0.645,0.332,0.563,0.542,�k,5.8,�L
2022/06/07,19:40,0.537,0.771,0.500,0.954,0.645,0.334,0.563,0.543,�k,5.1,�L
2022/06/07,19:50,0.538,0.773,0.502,0.956,0.647,0.334,0.564,0.544,�k,4.5,�L
2022/06/07,20:00,0.538,0.772,0.503,0.956,0.648,0.332,0.563,0.543,�k,5.2,�L
2022/06/07,20:10,0.539,0.772,0.501,0.956,0.649,0.333,0.562,0.541,�k,4.6,�L
2022/06/07,20:20,0.538,0.770,0.503,0.957,0.645,0.333,0.564,0.544,�k,6.9,��
2022/06/07,20:30,0.540,0.772,0.505,0.957,0.649,0.332,0.567,0.542,�k,4.7,�L
2022/06/07,20:40,0.539,0.773,0.502,0.957,0.648,0.333,0.564,0.544,�k,4.3,��
2022/06/07,20:50,0.541,0.774,0.502,0.959,0.647,0.333,0.565,0.543,�k,5.0,��
2022/06/07,21:00,0.540,0.773,0.503,0.956,0.648,0.333,0.565,0.544,�k�k��,7.5,��
2022/06/07,21:10,0.539,0.775,0.504,0.958,0.649,0.332,0.565,0.544,�k,7.4,��
2022/06/07,21:20,0.539,0.775,0.503,0.956,0.647,0.333,0.565,0.543,�k,7.3,��
2022/06/07,21:30,0.540,0.774,0.503,0.961,0.650,0.333,0.565,0.545,�k,6.5,��
2022/06/07,21:40,0.539,0.776,0.504,0.960,0.652,0.332,0.565,0.543,�k,7.4,��
2022/06/07,21:50,0.540,0.774,0.503,0.959,0.650,0.333,0.566,0.544,�k,7.0,��
2022/06/07,22:00,0.541,0.777,0.503,0.961,0.651,0.335,0.564,0.544,�k,7.6,��
2022/06/07,22:10,0.539,0.777,0.503,0.960,0.651,0.333,0.565,0.544,�k,7.1,��
2022/06/07,22:20,0.540,0.776,0.503,0.959,0.651,0.333,0.567,0.544,�k,6.2,��
2022/06/07,22:30,0.541,0.778,0.504,0.961,0.651,0.334,0.566,0.545,�k�k��,6.8,��
2022/06/07,22:40,0.542,0.778,0.504,0.962,0.655,0.333,0.566,0.545,�k,5.8,��
2022/06/07,22:50,0.542,0.779,0.505,0.961,0.653,0.334,0.566,0.544,�k�k��,5.8,��
2022/06/07,23:00,0.540,0.778,0.504,0.962,0.650,0.333,0.567,0.544,�k�k��,6.9,��
2022/06/07,23:10,0.542,0.778,0.505,0.959,0.653,0.334,0.566,0.545,�k�k��,6.9,��
2022/06/07,23:20,0.540,0.777,0.505,0.961,0.655,0.334,0.567,0.543,�k�k��,6.9,��
2022/06/07,23:30,0.542,0.779,0.504,0.964,0.652,0.335,0.568,0.544,�k�k��,6.7,��
2022/06/07,23:40,0.541,0.779,0.504,0.962,0.656,0.335,0.568,0.546,�k,6.0,��
2022/06/07,23:50,0.543,0.778,0.504,0.963,0.654,0.334,0.567,0.545,�k,6.8,��
